Flag for U.S.A. Weather past 2 weeks in Boise, Idaho, U.S.A.

Now
78 °F

Sunny.


Feels Like: 78 °F
Forecast: 59 / 85 °F
Wind: 6 mph from North

Location: Boise Air Terminal

Current Time: Sep 2, 2015 at 2:03:59 PM

Latest Report: Sep 2, 2015 at 12:53 PM


Visibility: 10 mi

Pressure: 29.78 "Hg (27.11 "Hg at 822m altitude)

Humidity: 23%

Dew point: 37 °F

Location of BoiseLocation

Historic Weather in Boise — Graph

°F

Boise temperature yesterday

Maximum temperature yesterday: 86 °F (at 6:53 PM)
Minimum temperature yesterday: 59 °F (at 5:53 AM)
Average temperature yesterday: 72 °F

Past Weeks' High & Low Weather Summary

 TemperatureHumidityPressure
High96 °F (Aug 24, 4:53 PM)66% (Aug 31, 6:53 AM)30.04 "Hg (Aug 31, 6:53 AM)
Low53 °F (Aug 22, 7:53 AM)12% (Aug 24, 4:53 PM)29.65 "Hg (Sep 1, 11:53 PM)
Average76 °F28%29.86 "Hg
* Reported Aug 18 12:53 PM — Sep 2 12:53 PM, Boise, Weather by CustomWeather, © 2015

Note: Actual official high and low records may vary slightly from our data, if they occured in-between our weather recording intervals... More about our weather records

Advertising

Boise weather history for previous 24 hours

 ConditionsComfort  
Time TempWeatherWind HumidityBarometerVisibility
12:53 PM
Wed, Sep 2
78 °FSunny.6 mph23%29.78 "Hg10 mi
11:53 AM79 °FSunny.8 mph22%29.79 "Hg10 mi
10:53 AM77 °FSunny.7 mph26%29.80 "Hg10 mi
9:53 AM73 °FSunny.3 mph28%29.80 "Hg10 mi
8:53 AM68 °FClear.6 mph35%29.80 "Hg9 mi
7:53 AM63 °FClear.6 mph41%29.78 "Hg7 mi
6:53 AM63 °FClear.3 mph40%29.76 "Hg10 mi
5:53 AM63 °FClear.3 mph38%29.74 "Hg10 mi
4:53 AM65 °FClear.9 mph36%29.72 "Hg10 mi
3:53 AM66 °FClear.12 mph34%29.68 "Hg10 mi
2:53 AM68 °FClear.9 mph32%29.67 "Hg10 mi
1:53 AM70 °FClear.9 mph31%29.66 "Hg10 mi
12:53 AM72 °FClear.6 mph28%29.66 "Hg10 mi
11:53 PM
Tue, Sep 1
73 °FClear.8 mph28%29.65 "Hg10 mi
10:53 PM72 °FClear.5 mph31%29.65 "Hg10 mi
9:53 PM74 °FSunny.5 mph29%29.67 "Hg10 mi
8:53 PM79 °FSunny.No wind26%29.67 "Hg10 mi
7:53 PM84 °FSunny.5 mph20%29.66 "Hg10 mi
6:53 PM86 °FSunny.7 mph21%29.67 "Hg10 mi
5:53 PM84 °FSunny.8 mph21%29.69 "Hg10 mi
4:53 PM84 °FSunny.8 mph21%29.71 "Hg10 mi
2:53 PM83 °FSunny.7 mph23%29.77 "Hg10 mi
Weather by CustomWeather, © 2015

See weather overviewHow to use our weather pages